Fulton, NY

5:57 AM EDT on June 25, 2017 (GMT -0400)
Oswego County

Weather History for KFZY - March, 2014

Change the Weather History Date:

Thursday, March 20, 2014

  Actual Average (KSYR) Record (KSYR)
Temperature  
Mean Temperature 36 °F -  
Max Temperature 39 °F 43 °F 79 °F (2012)
Min Temperature 32 °F 25 °F 6 °F (1967)
Degree Days  
Heating Degree Days 30    
Moisture  
Dew Point 30 °F    
Average Humidity 83    
Maximum Humidity 93    
Minimum Humidity 70    
Precipitation  
Precipitation 0.07 in - - ()
Sea Level Pressure  
Sea Level Pressure 29.76 in    
Wind  
Wind Speed 13 mph (West)    
Max Wind Speed 25 mph    
Max Gust Speed 36 mph    
Visibility 4 miles    
Events Fog , Rain , Snow    
Averages and records for this station are not official NWS values.
T = Trace of Precipitation, MM = Missing Value Source: NWS Daily Summary

Daily Weather History Graph

Daily Weather History Graph

Search for Another Location

Airport or City:

Trip Planner

Search our weather history database for the weather conditions in past years. The results will help you decide how hot, cold, wet, or windy it might be!

Date:

Astronomy

Mar. 20, 2014 Rise Set
Actual Time 7:08 AM EDT 7:17 PM EDT
Civil Twilight 6:40 AM EDT 7:46 PM EDT
Nautical Twilight 6:07 AM EDT 8:19 PM EDT
Astronomical Twilight 5:32 AM EDT 8:54 PM EDT
Moon 11:42 PM EDT (3/20) 9:06 AM EDT (3/20)
Length of Visible Light 13h 06m
Length of Day
12h 09m
Waning Gibbous, 84% of the Moon is Illuminated
Mar 20
Waning Gibbous
Mar 23
Last Quarter
Mar 30
New
Apr 7
First Quarter
Apr 15
Full

Hourly Weather History & Observations

Time (EDT) Temp. Windchill Dew Point Humidity Pressure Visibility Wind Dir Wind Speed Gust Speed Precip Events Conditions
12:50 AM 35.6 °F 29.9 °F 33.8 °F 93% 29.68 in 10.0 mi SE 6.9 mph - N/A   Overcast
12:54 AM 36.0 °F 30.3 °F 33.1 °F 89% 29.69 in 10.0 mi SE 6.9 mph - N/A   Overcast
1:54 AM 36.0 °F 31.1 °F 33.1 °F 89% 29.68 in 10.0 mi SE 5.8 mph - N/A   Overcast
2:11 AM 37.0 °F 33.3 °F 33.1 °F 86% 29.67 in 10.0 mi SSE 4.6 mph - N/A   Overcast
2:45 AM 37.0 °F 32.4 °F 34.0 °F 89% 29.66 in 10.0 mi SSE 5.8 mph - N/A   Overcast
2:54 AM 37.0 °F 34.5 °F 34.0 °F 89% 29.67 in 10.0 mi SSE 3.5 mph - N/A   Overcast
3:54 AM 37.0 °F - 34.0 °F 89% 29.66 in 10.0 mi Calm Calm - N/A   Overcast
4:54 AM 39.9 °F 34.5 °F 35.1 °F 83% 29.67 in 10.0 mi WSW 8.1 mph - N/A   Overcast
5:54 AM 39.0 °F 29.9 °F 32.0 °F 76% 29.70 in 10.0 mi WSW 17.3 mph 25.3 mph 0.00 in Rain Light Rain
6:54 AM 37.0 °F 27.7 °F 30.0 °F 76% 29.71 in 10.0 mi WSW 16.1 mph 27.6 mph 0.00 in   Overcast
7:54 AM 37.0 °F 27.0 °F 28.9 °F 73% 29.73 in 10.0 mi WSW 18.4 mph - N/A   Overcast
8:54 AM 36.0 °F 28.5 °F 28.9 °F 76% 29.73 in 8.0 mi WSW 10.4 mph - 0.00 in   Overcast
9:54 AM 36.0 °F 29.0 °F 28.9 °F 76% 29.73 in 6.0 mi West 9.2 mph - 0.00 in Snow Light Snow
10:40 AM 35.1 °F 26.4 °F 30.0 °F 82% 29.73 in 2.5 mi West 12.7 mph - 0.00 in Snow Light Snow
10:54 AM 35.1 °F 25.5 °F 28.9 °F 78% 29.74 in 2.5 mi West 15.0 mph - 0.00 in Snow Light Snow
11:05 AM 34.0 °F 25.5 °F 30.0 °F 85% 29.73 in 2.0 mi West 11.5 mph 21.9 mph 0.00 in Snow Light Snow
11:24 AM 34.0 °F 26.6 °F 30.0 °F 85% 29.73 in 4.0 mi West 9.2 mph - 0.01 in Snow Light Snow
11:46 AM 35.1 °F 25.9 °F 28.9 °F 78% 29.73 in 2.5 mi West 13.8 mph 21.9 mph 0.01 in Snow Light Snow
11:54 AM 35.1 °F 25.2 °F 28.9 °F 78% 29.74 in 1.5 mi West 16.1 mph 21.9 mph 0.01 in Snow Light Snow
12:06 PM 35.1 °F 25.2 °F 28.9 °F 78% 29.73 in 2.0 mi West 16.1 mph 21.9 mph 0.00 in Snow Light Snow
12:16 PM 36.0 °F 25.6 °F 28.9 °F 76% 29.72 in 4.0 mi West 18.4 mph 25.3 mph 0.00 in Snow Light Snow
12:24 PM 35.1 °F 26.9 °F 30.0 °F 82% 29.73 in 1.8 mi WSW 11.5 mph 25.3 mph 0.00 in Snow Light Snow
12:32 PM 36.0 °F 26.7 °F 30.0 °F 79% 29.73 in 3.0 mi WSW 15.0 mph 24.2 mph 0.00 in Snow Light Snow
12:45 PM 36.0 °F 26.0 °F 30.0 °F 79% 29.72 in 10.0 mi West 17.3 mph 23.0 mph 0.00 in   Overcast
12:54 PM 37.0 °F 26.2 °F 28.9 °F 73% 29.74 in 8.0 mi WSW 21.9 mph 29.9 mph 0.00 in Snow Light Snow
1:30 PM 36.0 °F 24.7 °F 30.0 °F 79% 29.73 in 2.5 mi West 21.9 mph 32.2 mph 0.00 in Snow Light Snow
1:40 PM 35.1 °F 23.5 °F 30.0 °F 82% 29.73 in 1.2 mi West 21.9 mph 32.2 mph 0.00 in Snow Light Snow
1:44 PM 35.1 °F 24.5 °F 30.0 °F 82% 29.73 in 1.0 mi West 18.4 mph 32.2 mph 0.00 in Snow Light Snow
1:54 PM 34.0 °F 23.0 °F 30.0 °F 85% 29.75 in 0.8 mi West 18.4 mph 27.6 mph 0.00 in Snow Light Snow
2:09 PM 34.0 °F 24.6 °F 30.0 °F 85% 29.73 in 0.5 mi West 13.8 mph 28.8 mph 0.00 in Fog , Snow Snow
2:17 PM 34.0 °F 25.0 °F 30.9 °F 89% 29.73 in 1.2 mi West 12.7 mph - 0.00 in Snow Light Snow
2:26 PM 34.0 °F 26.0 °F 30.9 °F 89% 29.73 in 3.0 mi West 10.4 mph - 0.00 in Snow Light Snow
2:42 PM 34.0 °F 24.6 °F 30.9 °F 89% 29.73 in 1.8 mi West 13.8 mph - 0.01 in Snow Light Snow
2:54 PM 34.0 °F 24.6 °F 30.9 °F 89% 29.75 in 0.8 mi West 13.8 mph - 0.01 in Snow Light Snow
3:01 PM 34.0 °F 25.5 °F 30.0 °F 85% 29.74 in 1.2 mi West 11.5 mph - 0.00 in Snow Light Snow
3:06 PM 34.0 °F 25.5 °F 30.9 °F 89% 29.73 in 3.0 mi WSW 11.5 mph - 0.00 in Snow Light Snow
3:25 PM 35.1 °F 27.9 °F 30.9 °F 85% 29.73 in 5.0 mi West 9.2 mph - 0.00 in Snow Light Snow
3:32 PM 35.1 °F 26.4 °F 30.9 °F 85% 29.73 in 2.5 mi West 12.7 mph - 0.01 in Snow Light Snow
3:50 PM 33.8 °F 24.3 °F 30.2 °F 87% 29.74 in 1.8 mi West 13.8 mph - 0.01 in Snow Light Snow
3:54 PM 34.0 °F 24.6 °F 30.9 °F 89% 29.75 in 1.2 mi West 13.8 mph 20.7 mph 0.02 in Snow Light Snow
4:03 PM 34.0 °F 25.5 °F 30.0 °F 85% 29.74 in 3.0 mi West 11.5 mph 24.2 mph 0.00 in Snow Light Snow
4:12 PM 34.0 °F 24.2 °F 30.0 °F 85% 29.74 in 1.8 mi West 15.0 mph 20.7 mph 0.00 in Snow Light Snow
4:30 PM 34.0 °F 23.8 °F 30.0 °F 85% 29.75 in 1.0 mi West 16.1 mph 25.3 mph 0.01 in Snow Light Snow
4:37 PM 34.0 °F 23.0 °F 30.0 °F 85% 29.75 in 2.0 mi West 18.4 mph 28.8 mph 0.01 in Snow Light Snow
4:45 PM 34.0 °F 23.0 °F 28.9 °F 82% 29.75 in 7.0 mi West 18.4 mph 31.1 mph 0.02 in Snow Light Snow
4:54 PM 34.0 °F 22.4 °F 28.9 °F 82% 29.77 in 3.0 mi West 20.7 mph 29.9 mph 0.02 in Snow Light Snow
5:01 PM 34.0 °F 23.8 °F 28.9 °F 82% 29.76 in 1.8 mi West 16.1 mph 27.6 mph 0.00 in Snow Light Snow
5:13 PM 34.0 °F 23.8 °F 28.9 °F 82% 29.76 in 3.0 mi West 16.1 mph - 0.00 in Snow Light Snow
5:24 PM 34.0 °F 22.7 °F 28.9 °F 82% 29.77 in 2.0 mi West 19.6 mph - 0.00 in Snow Light Snow
5:38 PM 34.0 °F 24.2 °F 28.9 °F 82% 29.77 in 7.0 mi West 15.0 mph - 0.00 in Snow Light Snow
5:54 PM 34.0 °F 23.0 °F 28.9 °F 82% 29.79 in 7.0 mi West 18.4 mph 26.5 mph 0.00 in Snow Light Snow
6:11 PM 34.0 °F 21.3 °F 28.0 °F 79% 29.78 in 9.0 mi West 25.3 mph 34.5 mph 0.01 in Snow Light Snow
6:54 PM 35.1 °F 23.8 °F 26.1 °F 70% 29.81 in 9.0 mi West 20.7 mph 28.8 mph 0.01 in   Overcast
7:27 PM 34.0 °F 22.1 °F 27.0 °F 75% 29.81 in 3.0 mi West 21.9 mph 35.7 mph 0.00 in Snow Light Snow
7:54 PM 33.1 °F 21.9 °F 27.0 °F 78% 29.83 in 5.0 mi West 18.4 mph 27.6 mph 0.00 in Snow Light Snow
8:06 PM 33.1 °F 22.2 °F 27.0 °F 78% 29.82 in 1.8 mi West 17.3 mph 28.8 mph 0.00 in Snow Light Snow
8:19 PM 33.1 °F 22.2 °F 28.0 °F 82% 29.83 in 2.0 mi West 17.3 mph 23.0 mph 0.00 in Snow Light Snow
8:37 PM 33.1 °F 21.2 °F 28.0 °F 82% 29.83 in 3.0 mi West 20.7 mph 33.4 mph 0.00 in Snow Light Snow
8:44 PM 33.1 °F 21.5 °F 28.0 °F 82% 29.84 in 1.8 mi West 19.6 mph 31.1 mph 0.00 in Snow Light Snow
8:54 PM 33.1 °F 20.9 °F 28.0 °F 82% 29.86 in 2.0 mi West 21.9 mph 31.1 mph 0.00 in Snow Light Snow
9:12 PM 32.0 °F 18.9 °F 28.0 °F 85% 29.84 in 1.8 mi West 24.2 mph 34.5 mph 0.00 in Snow Light Snow
9:22 PM 32.0 °F 20.1 °F 28.0 °F 85% 29.85 in 2.5 mi West 19.6 mph 25.3 mph 0.00 in Snow Light Snow
9:54 PM 32.0 °F 21.6 °F 27.0 °F 82% 29.87 in 2.0 mi West 15.0 mph 29.9 mph 0.00 in Snow Light Snow
10:08 PM 32.0 °F 20.5 °F 27.0 °F 82% 29.86 in 4.0 mi West 18.4 mph 26.5 mph 0.00 in Snow Light Snow
10:44 PM 32.0 °F 20.8 °F 27.0 °F 82% 29.86 in 2.5 mi West 17.3 mph 29.9 mph 0.00 in Snow Light Snow
10:54 PM 32.0 °F 19.5 °F 27.0 °F 82% 29.88 in 4.0 mi West 21.9 mph 29.9 mph 0.00 in Snow Light Snow
11:54 PM 32.0 °F 19.8 °F 27.0 °F 82% 29.89 in 6.0 mi West 20.7 mph 32.2 mph 0.00 in   Overcast